Regional Weather Roundup
Issued by NWS Green Bay, WI

Home | Current Version | Previous Version | Graphics & Text | Print | Product List | Glossary Off
Versions: 1 2 3 4 5 6 7 8 9 10 11 12 13 14 15 16 17 18 19 20 21 22 23 24 25 26 27 28 29 30 31 32 33 34 35 36 37 38 39 40 41 42 43 44 45 46 47 48 49 50

000
ASUS43 KGRB 020759
RWRGRB

NORTH-CENTRAL AND NORTHEAST WISCONSIN REGIONAL WEATHER ROUNDUP
NATIONAL WEATHER SERVICE GREEN BAY WI
300 AM CDT THU OCT 02 2014

WIZ005-009-010>012-018-019-020900-
NORTH CENTRAL WISCONSIN

CITY           SKY/WX    TMP DP  RH WIND       PRES   REMARKS
IRONWOOD       NOT AVBL
MANITOWISH WTR NOT AVBL
ARBOR VITAE    NOT AVBL
EAGLE RIVER    NOT AVBL
LAND O LAKES   NOT AVBL
RHINELANDER    CLOUDY    51  50  96 SE3       29.88F FOG
PHILLIPS       NOT AVBL
ANTIGO         NOT AVBL
TOMAHAWK       NOT AVBL
MERRILL        NOT AVBL
$$

WIZ013-073-020900-
NORTHEAST WISCONSIN

CITY           SKY/WX    TMP DP  RH WIND       PRES   REMARKS
IRON MOUNTAIN  CLOUDY    53  52  96 SE3       29.88F FOG
MARINETTE      NOT AVBL
$$

WIZ017-030-035>037-045-020900-
CENTRAL WISCONSIN

CITY           SKY/WX    TMP DP  RH WIND       PRES   REMARKS
MEDFORD        NOT AVBL
WAUSAU         CLOUDY    56  52  86 SE7       29.85F
MOSINEE        NOT AVBL
MARSHFIELD     MOCLDY    56  53  90 E5        29.84F
WISC RAPIDS    CLOUDY    57  55  93 CALM      29.86F
STEVENS POINT  NOT AVBL
WAUPACA        NOT AVBL
SHAWANO        NOT AVBL
CLINTONVILLE   NOT AVBL
$$

WIZ038-039-048-051-020900-
FOX VALLEY

CITY           SKY/WX    TMP DP  RH WIND       PRES   REMARKS
NWS GREEN BAY  CLOUDY    57  56  96 CALM      29.87F
APPLETON       NOT AVBL
OSHKOSH        CLOUDY    57  56  96 CALM      29.85F
FOND DU LAC    CLOUDY    58  54  86 CALM      29.85F
$$

WIZ022-050-052-020900-
EAST CENTRAL WISCONSIN

CITY           SKY/WX    TMP DP  RH WIND       PRES   REMARKS
STURGEON BAY   NOT AVBL
MANITOWOC      NOT AVBL
SHEBOYGAN      CLOUDY    60  56  86 S10       29.88F
$$

LMZ563-521-522-541>543-020900-
LAKESHORE

STATION/POSITION TIME  TEMP    WIND        PRES    VSBY  WAVE
                       AIR SEA DIR/SP/G                  HT/PER
                 (UTC) (F)     (DEG/KT/KT) (MB)    (MI)  (FT/S)
SHEBOYGAN LKSHOR 0700   58 56  190/  9/ 10 1012.4F
KEWAUNEE LKSHORE 0700   56     170/  7/  9 1011.3F
NORTHPORT PIER   0700   56     150/  7/ 10 1012.9F
N MID LAKE BUOY  0700   58 58  160/ 10/ 12 1013.5R         2/ 5
S GREEN BAY BUOY 0700   59     VRB  6/  8  1013.0F
CHAMBERS ISLAND  0700   56     130/  3/  7 1012.9F
MENOMINEE LKSHOR 0700   57     150/  7/  8 1012.8F
$$


USA.gov is the U.S. government's official web portal to all federal, state and local government web resources and services.